VANGUARD R/B, 16

Orbit data source: Space-Track

VANGUARD R/B, 16 is space debris in LEO originally from a launch on Mon, 17 Mar 1958 UTC launched from the Air Force Eastern Test Range (AFETR). Debris objects in space refer to the collection of defunct objects orbiting the Earth. Examples of debris include non-operational satellites, rocket bodies, and fragments generated from explosions, collisions, or faulty payload assembly.

Loading next visibility...
Identifier
16, 1958-002A
Orbit
LEO
Country
Flag of USUS
Related business
Manufacturer
GCR/Redlands
Mission
Spacecraft
Bus & Motor
33-KS-2800, Unknown motor
Mass
22 kg wet, 22 kg dry
Launch date (UTC)
1958-03-17 (68 years ago)
Launch vehicle
Unknown
Launch site
Air Force Eastern Test Range (AFETR)
Object type
Payload
Rocket body
Debris
Shape & HBR
Unknown
Radar Cross Section
Medium (>0.1 m² and <1 m²)

Expand to show TLE details & history
Last TLE update: 10 hours ago

TLE from 10 hours ago
0 VANGUARD R/B
1 00016U 58002A   25310.08443366 -.00000008  00000-0 -38705-4 0  9994
2 00016  34.2771 230.2237 2024800 258.4288  78.3456 10.49568675665477
Epoch: 2025-11-06T02:01Z
TLE epoch observation values (Epoch: 2025-11-06T02:01:35.068Z)
Latitude
-0°
Longitude
154.27975°
Altitude
2,430.909 km
Speed
6.73 km/s
True Right ascension
15h 20m 53s
True Declination
0° 00' 00"
Sunlit
Object was in daylight at epoch
Visualization orbit readout
Latitude
Unknown
Longitude
Unknown
Altitude
Unknown
Speed
Unknown
Apparent Right ascension
Unknown
Apparent Declination
Unknown
Sunlit
N/A
Visualization observer readout
Local Sidereal Time
07:37:04
Azimuth
Unknown
Elevation
Unknown
Doppler factor
Unknown
Orbital elements
Apogee altitude
4,221.156 km
Perigee altitude
651.625 km
Semi-major axis
8,814.528 km
Eccentricity
0.20248
Inclination
34.2771°
RAAN
230.2237°
Arg. of periapsis
258.4288°
True anomaly
101.62996°
Mean anomaly
78.3456°
Eccentric anomaly
89.94684°
Mean motion
2.62268 °/min
Orbital period
137.26 mins
BSTAR
-0.000038705
Loading maneuver chart data...
Computing Atmospheric mass density...
Loading historical data...
Loading historical data...
Loading historical data...
Loading historical data...
Loading historical data...
Loading historical data...
Loading historical data...
Other satellites on launch #2 in the year 1958 (1958-03-17 UTC)

Documentation

Showing up to 5 results
|